This demonstration page uses our WeatherBlox Daily Observations layout. Learn more.

39.01783, -85.05884

Hourly Observations for July 10, 2019

Temp ( °F °C ) Dew Point ( °F °C ) Humidity (%) Winds ( mph kmh ) Pressure ( in mb ) Visibility ( mi km ) Precip ( " mm )
12:52 am 00:52 Partly Cloudy 76 24.4 65 18.3 69 69 Calm 29.97 1015 10 16.09344 0 0
1:52 am 01:52 Mostly Cloudy 75 23.9 65 18.3 71 71 Calm 29.97 1015 10 16.09344 0 0
2:52 am 02:52 Mostly Cloudy 73 22.8 66 18.9 79 79 S 3 6 29.94 1014 10 16.09344 0 0
3:52 am 03:52 Partly Cloudy 74 23.3 66 18.9 76 76 Calm 29.94 1014 10 16.09344 0 0
4:52 am 04:52 Mostly Cloudy 73 22.8 66 18.9 79 79 Calm 29.94 1014 10 16.09344 0 0
5:52 am 05:52 Mostly Clear 72 22.2 66 18.9 82 82 Calm 29.97 1015 10 16.09344 0 0
6:52 am 06:52 Mostly Cloudy 72 22.2 66 18.9 82 82 Calm 29.97 1015 8 12.874752 0 0
7:52 am 07:52 Partly Cloudy 76 24.4 69 20.6 79 79 Calm 29.97 1015 8 12.874752 0 0
8:52 am 08:52 Mostly Sunny 81 27.2 69 20.6 67 67 SSW 3 6 29.97 1015 10 16.09344 0 0
9:52 am 09:52 Mostly Sunny 84 28.9 68 20 59 59 SSW 7 11 29.97 1015 10 16.09344 0 0
10:52 am 10:52 Mostly Sunny 87 30.6 68 20 53 53 WSW 6 9 29.97 1015 10 16.09344 0 0
11:52 am 11:52 Mostly Sunny 88 31.1 66 18.9 48 48 Calm 29.97 1015 10 16.09344 0 0
12:52 pm 12:52 Mostly Cloudy 89 31.7 68 20 50 50 SW 9 15 29.97 1015 10 16.09344 0 0
1:52 pm 13:52 Mostly Cloudy 90 32.2 67 19.4 47 47 undefined N/A 29.97 1015 10 16.09344 0 0
2:52 pm 14:52 Mostly Cloudy 90 32.2 68 20 48 48 SW 7 11 29.94 1014 10 16.09344 0 0
3:52 pm 15:52 Partly Cloudy 91 32.8 69 20.6 49 49 SSW 6 9 29.94 1014 10 16.09344 0 0
4:52 pm 16:52 Partly Cloudy 91 32.8 69 20.6 49 49 WSW 8 13 29.91 1013 10 16.09344 0 0
5:52 pm 17:52 Partly Cloudy 91 32.8 69 20.6 49 49 SW 9 15 29.88 1012 10 16.09344 0 0
6:52 pm 18:52 Partly Cloudy 90 32.2 70 21.1 52 52 SW 6 9 29.88 1012 10 16.09344 0 0
7:52 pm 19:52 Partly Cloudy 88 31.1 70 21.1 55 55 SW 7 11 29.88 1012 10 16.09344 0 0
8:52 pm 20:52 Mostly Cloudy 85 29.4 71 21.7 63 63 SSW 6 9 29.88 1012 10 16.09344 0 0
9:52 pm 21:52 Cloudy 83 28.3 72 22.2 70 70 SSW 5 7 29.91 1013 10 16.09344 0 0
10:52 pm 22:52 Cloudy 82 27.8 72 22.2 72 72 SW 3 6 29.91 1013 10 16.09344 0 0
11:52 pm 23:52 Cloudy 81 27.2 72 22.2 74 74 WSW 3 6 29.88 1012 10 16.09344 0 0

Powered by AerisWeather